User: anonymous   Login
Location: Unspecified
(0.0000°N, 0.0000°E)
Time: 03:21:54
(UTC+00:00)
Language:

TBA - TO BE ASSIGNED - Orbit

View from above orbital plane
View from above orbital plane
View from above satellite
View from above satellite

Ground track
Ground track

The orbit is defined by the following mean orbital elements,

1 68963U          26145.58335647 +.00000000 +00000-0 -21345-1 0 00001
2 68963  53.1595 267.9530 0001318  62.8525  98.2054 15.65520819    05
Epoch (UTC): 25 May 2026 14:00:01
Eccentricity: 0.0001318
inclination: 53.1595°
perigee height: 371 km
apogee height: 373 km
right ascension of ascending node: 267.9530°
argument of perigee: 62.8525°
revolutions per day: 15.65520819
mean anomaly at epoch: 98.2054°

The dashed part of the orbit path shows where the satellite is in the earth's shadow,  

DLR